Murray, KY

1:42 PM CDT on April 23, 2018 (GMT -0500)
Kyle-Oakley

Weather History for KCEY - March, 2013

Change the Weather History Date:

Saturday, March 30, 2013

  Actual Average (KPAH) Record (KPAH)
Temperature  
Mean Temperature 44 °F -  
Max Temperature 51 °F 61 °F 84 °F (1986)
Min Temperature 37 °F 43 °F 20 °F (1964)
Degree Days  
Heating Degree Days 21    
Moisture  
Dew Point 45 °F    
Average Humidity 95    
Maximum Humidity 100    
Minimum Humidity 76    
Precipitation  
Precipitation 0.13 in - - ()
Sea Level Pressure  
Sea Level Pressure 30.08 in    
Wind  
Wind Speed 4 mph (SE)    
Max Wind Speed 9 mph    
Max Gust Speed -    
Visibility 4 miles    
Events      
Averages and records for this station are not official NWS values.
T = Trace of Precipitation, MM = Missing Value Source: NWS Daily Summary

Daily Weather History Graph

Daily Weather History Graph

Search for Another Location

Airport or City:

Astronomy

Mar. 30, 2013 Rise Set
Actual Time 6:41 AM CDT 7:14 PM CDT
Civil Twilight 6:15 AM CDT 7:40 PM CDT
Nautical Twilight 5:45 AM CDT 8:10 PM CDT
Astronomical Twilight 5:14 AM CDT 8:42 PM CDT
Moon 11:14 PM CDT (3/30) 8:42 AM CDT (3/30)
Length of Visible Light 13h 24m
Length of Day
12h 32m
Waning Gibbous, 86% of the Moon is Illuminated
Mar 30
Waning Gibbous
Apr 2
Last Quarter
Apr 10
New
Apr 18
First Quarter
Apr 25
Full

Hourly Weather History & Observations

Time (CDT) Temp. Windchill Dew Point Humidity Pressure Visibility Wind Dir Wind Speed Gust Speed Precip Events Conditions
12:15 AM 42.8 °F - 42.8 °F 100% 30.20 in 4.0 mi Calm Calm - N/A   Overcast
12:35 AM 41.0 °F 39.0 °F 41.0 °F 100% 30.20 in 5.0 mi SE 3.5 mph - N/A   Overcast
1:15 AM 41.0 °F 39.0 °F 41.0 °F 100% 30.20 in 5.0 mi SSE 3.5 mph - N/A   Mostly Cloudy
1:35 AM 41.0 °F - 41.0 °F 100% 30.20 in 7.0 mi Calm Calm - N/A   Mostly Cloudy
1:55 AM 41.0 °F - 41.0 °F 100% 30.20 in 3.0 mi Calm Calm - N/A   Partly Cloudy
2:15 AM 41.0 °F - 41.0 °F 100% 30.19 in 0.2 mi Calm Calm - N/A   Mostly Cloudy
2:35 AM 39.2 °F - 39.2 °F 100% 30.19 in 0.2 mi Calm Calm - N/A   Mostly Cloudy
2:55 AM 37.4 °F - 37.4 °F 100% 30.18 in 0.2 mi Calm Calm - N/A   Overcast
3:15 AM 39.2 °F 35.9 °F 39.2 °F 100% 30.17 in 0.2 mi NE 4.6 mph - N/A   Overcast
3:35 AM 39.2 °F 35.9 °F 39.2 °F 100% 30.18 in 0.2 mi NNE 4.6 mph - N/A   Overcast
3:55 AM 41.0 °F 39.0 °F 41.0 °F 100% 30.17 in 0.2 mi NE 3.5 mph - N/A   Overcast
4:15 AM 41.0 °F - 41.0 °F 100% 30.17 in 0.2 mi Calm Calm - N/A   Overcast
4:35 AM 41.0 °F 39.0 °F 41.0 °F 100% 30.17 in 0.2 mi NE 3.5 mph - N/A   Overcast
4:55 AM 42.8 °F 41.1 °F 42.8 °F 100% 30.17 in 0.2 mi East 3.5 mph - N/A   Overcast
5:15 AM 42.8 °F - 42.8 °F 100% 30.18 in 0.2 mi Calm Calm - N/A   Overcast
5:35 AM 42.8 °F 40.1 °F 42.8 °F 100% 30.17 in 0.2 mi ENE 4.6 mph - N/A   Unknown
5:55 AM 42.8 °F 39.3 °F 42.8 °F 100% 30.17 in 0.2 mi ENE 5.8 mph - N/A   Unknown
6:15 AM 42.8 °F 40.1 °F 42.8 °F 100% 30.17 in 0.2 mi ENE 4.6 mph - N/A   Unknown
6:35 AM 42.8 °F 39.3 °F 42.8 °F 100% 30.16 in 0.2 mi ESE 5.8 mph - N/A   Unknown
6:55 AM 42.8 °F 40.1 °F 42.8 °F 100% 30.17 in 0.2 mi ESE 4.6 mph - N/A   Overcast
7:15 AM 42.8 °F 41.1 °F 42.8 °F 100% 30.19 in 0.2 mi SE 3.5 mph - N/A   Overcast
7:35 AM 42.8 °F 39.3 °F 42.8 °F 100% 30.19 in 0.8 mi ESE 5.8 mph - N/A   Overcast
7:55 AM 42.8 °F 39.3 °F 42.8 °F 100% 30.19 in 2.5 mi SE 5.8 mph - N/A   Overcast
8:15 AM 42.8 °F 38.0 °F 42.8 °F 100% 30.17 in 2.0 mi ESE 8.1 mph - N/A   Overcast
8:35 AM 44.6 °F 39.7 °F 44.6 °F 100% 30.17 in 1.8 mi ESE 9.2 mph - N/A   Overcast
8:55 AM 44.6 °F 39.7 °F 44.6 °F 100% 30.17 in 2.5 mi ESE 9.2 mph - N/A   Overcast
9:15 AM 44.6 °F 40.2 °F 44.6 °F 100% 30.17 in 4.0 mi ESE 8.1 mph - N/A   Overcast
9:35 AM 44.6 °F 40.2 °F 44.6 °F 100% 30.17 in 5.0 mi ESE 8.1 mph - N/A   Overcast
9:55 AM 46.4 °F 42.9 °F 46.4 °F 100% 30.16 in 8.0 mi ESE 6.9 mph - N/A   Overcast
10:15 AM 46.4 °F 42.4 °F 46.4 °F 100% 30.16 in 9.0 mi SE 8.1 mph - N/A   Overcast
10:35 AM 48.2 °F - 48.2 °F 100% 30.15 in 9.0 mi ESE 6.9 mph - N/A   Overcast
10:55 AM 50.0 °F - 46.4 °F 87% 30.15 in 10.0 mi East 8.1 mph - N/A   Overcast
11:15 AM 50.0 °F - 44.6 °F 82% 30.14 in 10.0 mi East 9.2 mph - N/A   Overcast
11:35 AM 50.0 °F - 44.6 °F 82% 30.14 in 10.0 mi SE 8.1 mph - N/A   Overcast
11:55 AM 50.0 °F - 44.6 °F 82% 30.14 in 10.0 mi SE 9.2 mph - N/A   Overcast
12:15 PM 50.0 °F - 44.6 °F 82% 30.13 in 10.0 mi SSE 6.9 mph - N/A   Overcast
12:35 PM 50.0 °F - 44.6 °F 82% 30.12 in 10.0 mi SSE 4.6 mph - N/A   Overcast
12:55 PM 50.0 °F - 44.6 °F 82% 30.11 in 10.0 mi SSE 6.9 mph - N/A   Overcast
1:15 PM 51.8 °F - 44.6 °F 76% 30.10 in 10.0 mi SE 6.9 mph - N/A   Overcast
1:35 PM 51.8 °F - 44.6 °F 76% 30.09 in 10.0 mi SE 6.9 mph - N/A   Overcast
1:55 PM 51.8 °F - 44.6 °F 76% 30.09 in 10.0 mi SE 8.1 mph - N/A   Overcast
2:15 PM 51.8 °F - 44.6 °F 76% 30.07 in 10.0 mi SE 8.1 mph - N/A   Overcast
2:35 PM 51.8 °F - 46.4 °F 82% 30.06 in 10.0 mi SSE 4.6 mph - N/A   Mostly Cloudy
2:55 PM 51.8 °F - 44.6 °F 76% 30.06 in 10.0 mi SSE 4.6 mph - N/A   Mostly Cloudy
3:15 PM 51.8 °F - 46.4 °F 82% 30.06 in 10.0 mi SSE 4.6 mph - N/A   Overcast
3:35 PM 51.8 °F - 46.4 °F 82% 30.04 in 10.0 mi SSE 4.6 mph - N/A   Mostly Cloudy
3:55 PM 51.8 °F - 46.4 °F 82% 30.03 in 10.0 mi SSE 4.6 mph - N/A   Mostly Cloudy
4:15 PM 50.0 °F - 48.2 °F 94% 30.02 in 5.0 mi SSE 5.8 mph - N/A   Overcast
4:35 PM 50.0 °F - 48.2 °F 94% 30.01 in 3.0 mi SE 6.9 mph - 0.01 in   Overcast
4:55 PM 50.0 °F - 50.0 °F 100% 30.00 in 3.0 mi SE 4.6 mph - 0.03 in   Overcast
5:15 PM 50.0 °F - 50.0 °F 100% 30.00 in 3.0 mi SE 6.9 mph - 0.01 in   Overcast
5:35 PM 48.2 °F - 48.2 °F 100% 29.99 in 2.5 mi SE 5.8 mph - 0.01 in   Mostly Cloudy
5:55 PM 48.2 °F - 48.2 °F 100% 29.99 in 2.5 mi ESE 4.6 mph - 0.03 in   Overcast
6:15 PM 48.2 °F - 48.2 °F 100% 29.98 in 2.0 mi East 4.6 mph - 0.01 in   Overcast
6:35 PM 48.2 °F - 48.2 °F 100% 29.97 in 2.0 mi SE 6.9 mph - 0.02 in   Overcast
6:55 PM 48.2 °F - 48.2 °F 100% 29.96 in 1.8 mi SE 5.8 mph - 0.03 in   Overcast
7:15 PM 48.2 °F - 48.2 °F 100% 29.95 in 1.5 mi SE 6.9 mph - N/A   Overcast
7:35 PM 48.2 °F - 48.2 °F 100% 29.94 in 3.0 mi SE 5.8 mph - 0.01 in   Overcast
7:55 PM 48.2 °F - 48.2 °F 100% 29.94 in 3.0 mi Calm Calm - 0.01 in   Unknown
8:15 PM 48.2 °F - 48.2 °F 100% 29.94 in 4.0 mi East 3.5 mph - N/A   Unknown
8:35 PM 48.2 °F - 48.2 °F 100% 29.94 in 4.0 mi ESE 4.6 mph - N/A   Overcast
8:55 PM 48.2 °F - 48.2 °F 100% 29.94 in 3.0 mi SE 4.6 mph - N/A   Overcast
9:15 PM 48.2 °F - 48.2 °F 100% 29.94 in 3.0 mi SE 3.5 mph - N/A   Overcast
9:35 PM 48.2 °F - 48.2 °F 100% 29.93 in 2.5 mi SE 3.5 mph - N/A   Overcast
9:55 PM 50.0 °F - 50.0 °F 100% 29.93 in 3.0 mi South 3.5 mph - N/A   Overcast
10:15 PM 50.0 °F - 50.0 °F 100% 29.93 in 4.0 mi South 3.5 mph - N/A   Overcast
10:35 PM 50.0 °F - 50.0 °F 100% 29.92 in 3.0 mi South 4.6 mph - N/A   Overcast
10:55 PM 50.0 °F - 50.0 °F 100% 29.93 in 2.0 mi SW 6.9 mph - N/A   Overcast
11:15 PM 50.0 °F - 50.0 °F 100% 29.93 in 1.2 mi WNW 6.9 mph - 0.02 in   Overcast
11:35 PM 50.0 °F - 50.0 °F 100% 29.92 in 1.2 mi West 4.6 mph - 0.02 in   Unknown
11:55 PM 50.0 °F - 50.0 °F 100% 29.92 in 1.0 mi WNW 5.8 mph - 0.03 in   Unknown